Caslav, Czech Republic

7:30 PM CET on March 25, 2017 (GMT +0100)
Caslav

Weather History for LKCV - March, 2013

Change the Weather History Date:

Wednesday, March 20, 2013

  Actual Average Record
Temperature  
Mean Temperature 39 °F -  
Max Temperature 46 °F - - ()
Min Temperature 32 °F - - ()
Degree Days  
Heating Degree Days 26    
Moisture  
Dew Point 34 °F    
Average Humidity 84    
Maximum Humidity 93    
Minimum Humidity 66    
Precipitation  
Precipitation 0.00 in - - ()
Sea Level Pressure  
Sea Level Pressure 29.67 in    
Wind  
Wind Speed 6 mph ()    
Max Wind Speed 12 mph    
Max Gust Speed -    
Visibility 6.2 miles    
Events      
T = Trace of Precipitation, MM = Missing Value Source: Averaged Metar Reports

Daily Weather History Graph

Daily Weather History Graph

Search for Another Location

Airport or City:

Trip Planner

Search our weather history database for the weather conditions in past years. The results will help you decide how hot, cold, wet, or windy it might be!

Date:

Astronomy

Mar. 20, 2013 Rise Set
Actual Time 6:01 AM CET 6:11 PM CET
Civil Twilight 5:29 AM CET 6:43 PM CET
Nautical Twilight 4:51 AM CET 7:21 PM CET
Astronomical Twilight 4:11 AM CET 8:01 PM CET
Moon 10:59 AM CET (3/20) 2:00 AM CET (3/20)
Length of Visible Light 13h 14m
Length of Day
12h 10m
First Quarter, 57% of the Moon is Illuminated
Mar 20
First Quarter
Mar 27
Full
Apr 3
Last Quarter
Apr 10
New
Apr 18
First Quarter

Hourly Weather History & Observations

Time (CET) Temp. Windchill Dew Point Humidity Pressure Visibility Wind Dir Wind Speed Gust Speed Precip Events Conditions
12:00 AM 37.4 °F 29.8 °F 33.8 °F 87% 29.56 in - SW 11.5 mph - N/A   Clear
1:00 AM 35.6 °F 27.5 °F 33.8 °F 93% 29.59 in - SW 11.5 mph - N/A   Clear
2:00 AM 33.8 °F 26.4 °F 32.0 °F 93% 29.59 in - SW 9.2 mph - N/A   Clear
3:00 AM 32.0 °F 24.8 °F 30.2 °F 93% 29.62 in - SSW 8.1 mph - N/A   Clear
4:00 AM 32.0 °F 23.6 °F 30.2 °F 93% 29.62 in - SW 10.4 mph - N/A   Clear
5:00 AM 33.8 °F 27.0 °F 32.0 °F 93% 29.62 in - SW 8.1 mph - N/A   Clear
6:00 AM 32.0 °F 25.6 °F 30.2 °F 93% 29.62 in - WSW 6.9 mph - N/A   Clear
7:00 AM 33.8 °F - 32.0 °F 93% 29.65 in - Variable 1.2 mph - N/A   Clear
8:00 AM 37.4 °F - 32.0 °F 81% 29.65 in - Calm Calm - N/A   Clear
9:00 AM 37.4 °F - 33.8 °F 87% 29.68 in - Variable 2.3 mph - N/A   Clear
10:00 AM 39.2 °F 34.2 °F 33.8 °F 81% 29.68 in 6.2 mi WSW 6.9 mph - N/A   Scattered Clouds
11:00 AM 41.0 °F 38.0 °F 33.8 °F 76% 29.68 in 6.2 mi West 4.6 mph - N/A   Scattered Clouds
12:00 PM 42.8 °F 41.1 °F 33.8 °F 70% 29.71 in 6.2 mi NW 3.5 mph - N/A   Scattered Clouds
1:00 PM 44.6 °F 43.1 °F 33.8 °F 66% 29.68 in 6.2 mi NNE 3.5 mph - N/A   Scattered Clouds
2:00 PM 42.8 °F 40.1 °F 33.8 °F 70% 29.68 in 6.2 mi East 4.6 mph - N/A   Mostly Cloudy
3:00 PM 44.6 °F 43.1 °F 33.8 °F 66% 29.68 in 6.2 mi East 3.5 mph - N/A   Scattered Clouds
4:00 PM 46.4 °F 44.3 °F 35.6 °F 66% 29.68 in 6.2 mi ENE 4.6 mph - N/A   Partly Cloudy
5:00 PM 44.6 °F 40.2 °F 35.6 °F 71% 29.68 in - ENE 8.1 mph - N/A   Clear
6:00 PM 41.0 °F 36.4 °F 35.6 °F 81% 29.68 in - ENE 6.9 mph - N/A   Clear
7:00 PM 39.2 °F 35.0 °F 35.6 °F 87% 29.68 in - ESE 5.8 mph - N/A   Clear
8:00 PM 37.4 °F - 35.6 °F 93% 29.71 in - Calm Calm - N/A   Clear
9:00 PM 35.6 °F 32.8 °F 33.8 °F 93% 29.71 in - West 3.5 mph - N/A   Clear
10:00 PM 35.6 °F 30.7 °F 33.8 °F 93% 29.74 in - West 5.8 mph - N/A   Clear
11:00 PM 39.2 °F 37.0 °F 35.6 °F 87% 29.77 in 6.2 mi West 3.5 mph - N/A   Mostly Cloudy